Regional Weather Roundup
Issued by NWS

Home | Current Version | Previous Version | Text Only | Print | Product List | Glossary Off
Versions: 1 2 3 4 5 6 7 8 9 10 11 12 13 14 15 16 17 18 19 20 21 22 23 24 25 26 27 28 29 30 31 32 33 34 35 36 37 38 39 40 41 42 43 44 45 46 47

000
ASUS43 KDMX 291907
RWRIA

WEATHER ROUNDUP FOR IOWA
NATIONAL WEATHER SERVICE DES MOINES IA
200 PM CDT WED JUL 29 2015

NOTE: "FAIR" INDICATES FEW OR NO CLOUDS BELOW 12,000 FEET WITH NO
SIGNIFICANT WEATHER AND/OR OBSTRUCTIONS TO VISIBILITY.

* - THESE STATIONS ARE NOT NWS STATIONS...THUS NOT UNDER NWS
QUALITY CONTROL.  THEY ALSO DO NOT REPORT WEATHER SUCH
AS PRECIPITATION OR FOG.

IAZ001>003-012>014-020>022-031>034-043>046-292000-
   NORTHWEST IOWA

CITY           SKY/WX    TMP DP  RH WIND       PRES   REMARKS
CARROLL *      SUNNY     79  54  41 W14G22    30.14F
CHEROKEE *     SUNNY     81  55  41 W13G22    30.14S HX  80
DENISON *      SUNNY     79  57  47 W10G18    30.14S HX  80
LE MARS *      SUNNY     81  57  44 W12G18    30.15S HX  81
ORANGE CITY *  SUNNY     79  55  44 W15G23    30.14S
SHELDON *      SUNNY     79  55  44 W16       30.12S
SIOUX CITY     SUNNY     83  56  39 W13G18    30.14F HX  82
SPENCER        SUNNY     82  54  37 W18G29    30.12F HX  81
STORM LAKE *   SUNNY     79  59  50 W12G20    30.15F HX  80
$$

IAZ055>058-069>071-079>083-090>094-292000-
   SOUTHWEST IOWA

CITY           SKY/WX    TMP DP  RH WIND       PRES   REMARKS
ATLANTIC *     SUNNY     81  57  44 NW9       30.16S HX  81
AUDUBON *      SUNNY     81  57  44 NW8       30.17S HX  81
CLARINDA *     SUNNY     81  61  50 NW9G16    30.18S HX  81
COUNCIL BLFS * SUNNY     81  52  36 NW9       30.17F HX  80
CRESTON *      SUNNY     81  55  41 NW12G21   30.17R HX  80
HARLAN  *      SUNNY     79  61  53 NW8       30.20R HX  80
LAMONI           N/A    N/A N/A N/A MISG      30.16R
RED OAK *      SUNNY     82  54  36 NW8       30.17S HX  81
SHENANDOAH *   SUNNY     82  59  44 N9G18     30.17S HX  82
$$

IAZ047>049-059>061-072>074-084-292000-
   CENTRAL IOWA

CITY           SKY/WX    TMP DP  RH WIND       PRES   REMARKS
AMES           MOSUNNY   81  55  40 NW18G28   30.11S HX  81
ANKENY *       SUNNY     82  55  39 NW16      30.11F HX  82
CHARITON *     SUNNY     82  57  42 NW10G17   30.14S HX  82
DES MOINES     PTSUNNY   85  53  33 NW12      30.11F HX  83
GRINNELL*      SUNNY     79  59  50 NW14G20   30.12S HX  80
KNOXVILLE *    SUNNY     81  57  44 NW9G18    30.12S HX  81
MARSHALLTOWN     N/A    N/A N/A N/A MISG      30.10S
PELLA *        MOSUNNY   82  61  47 NW10G20   30.13S HX  83
PERRY *          N/A     77  57  50 NW10      30.13F
$$

IAZ004>006-015-016-023>025-035-036-292000-
   NORTH CENTRAL IOWA

CITY           SKY/WX    TMP DP  RH WIND       PRES   REMARKS
ALGONA *       SUNNY     81  57  44 W20       30.10F HX  81
CLARION *      SUNNY     79  57  47 W17G30    30.10F HX  80
ESTHERVILLE    SUNNY     79  56  45 W18G26    30.09F HX  80
FORT DODGE *   SUNNY     81  57  44 W15G22    30.13S HX  81
MASON CITY     SUNNY     82  56  40 W24G32    30.08F HX  82
FOREST CITY *  SUNNY     79  54  41 W14G26    30.08S
IOWA FALLS *     N/A     81  54  39 W15G25    30.11S HX  80
$$

IAZ007>011-017>019-026>030-037>042-050>054-066-292000-
   NORTHEAST IOWA

CITY           SKY/WX    TMP DP  RH WIND       PRES   REMARKS
CEDAR RAPIDS   SUNNY     80  59  48 NW16G24   30.08S HX  81
CHARLES CITY * SUNNY     79  57  47 NW20G28   30.07S HX  80
CLINTON *      SUNNY     81  61  50 W13       30.08S HX  81
DECORAH *      SUNNY     79  55  44 W10G22    30.04R
DUBUQUE        MOSUNNY   81  55  40 W16       30.06S HX  81
MONTICELLO *   SUNNY     81  57  44 NW12G22   30.07R HX  81
OELWEIN *      SUNNY     81  57  44 NW15G24   30.08S HX  81
WATERLOO       SUNNY     82  55  39 W14G28    30.06S HX  81
$$

IAZ064-065-067-068-078-292000-
   EAST CENTRAL IOWA

CITY           SKY/WX    TMP DP  RH WIND       PRES   REMARKS
DAVENPORT      MOSUNNY   81  58  45 W12       30.08R HX  81
IOWA CITY      SUNNY     83  55  38 NW16      30.09S HX  82
MT. PLEASANT * PTSUNNY   84  48  28 NW7       30.11R HX  82
MUSCATINE *    SUNNY     84  57  39 NW12      30.08S HX  83
QUAD CITIES    MOSUNNY   84  56  38 NW12G21   30.06S HX  83
$$

IAZ062-063-075>077-085>089-095>099-292000-
   SOUTHEAST IOWA

CITY           SKY/WX    TMP DP  RH WIND       PRES   REMARKS
BURLINGTON     PTSUNNY   82  59  45 N8        30.10R HX  82
FAIRFIELD *    SUNNY     81  55  41 NW10G16   30.12R HX  80
FORT MADISON * SUNNY     81  61  50 NW8       30.11S HX  81
KEOKUK *       SUNNY     82  59  44 N8        30.10R HX  82
OSKALOOSA *      N/A     81  61  50 N8        30.12S HX  81
CENTERVILLE *  SUNNY     81  61  50 NW8       30.16R HX  81
OTTUMWA        MOSUNNY   81  60  48 NW9       30.10S HX  82
WASHINGTON *   SUNNY     82  61  47 NW13      30.12R HX  83
$$

ABBREVIATIONS USED IN REMARKS
   TC - TEMPERATURES IN CELSIUS
  WCI - WIND CHILL INDEX
   HX - HEAT INDEX
  VSB - VISIBILITY
$$



USA.gov is the U.S. government's official web portal to all federal, state and local government web resources and services.